Big Bear City, CA

3:43 PM PDT on April 30, 2017 (GMT -0700)
Big Bear City

Weather History for KL35 - January, 2013

Change the Weather History Date:

Thursday, January 24, 2013

  Actual Average (KBUO) Record (KBUO)
Temperature  
Mean Temperature 39 °F -  
Max Temperature 46 °F 58 °F 69 °F (2000)
Min Temperature 32 °F 40 °F 35 °F (1998)
Degree Days  
Heating Degree Days 26    
Moisture  
Dew Point 34 °F    
Average Humidity 84    
Maximum Humidity 100    
Minimum Humidity 66    
Precipitation  
Precipitation 0.07 in - - ()
Sea Level Pressure  
Sea Level Pressure 30.23 in    
Wind  
Wind Speed 2 mph (WSW)    
Max Wind Speed 10 mph    
Max Gust Speed -    
Visibility 8 miles    
Events Rain    
Averages and records for this station are not official NWS values.
T = Trace of Precipitation, MM = Missing Value Source: NWS Daily Summary

Daily Weather History Graph

Daily Weather History Graph

Search for Another Location

Airport or City:

Trip Planner

Search our weather history database for the weather conditions in past years. The results will help you decide how hot, cold, wet, or windy it might be!

Date:

Astronomy

Jan. 24, 2013 Rise Set
Actual Time 6:49 AM PST 5:09 PM PST
Civil Twilight 6:22 AM PST 5:36 PM PST
Nautical Twilight 5:52 AM PST 6:07 PM PST
Astronomical Twilight 5:22 AM PST 6:36 PM PST
Moon 3:17 PM PST (1/24) 4:49 AM PST (1/24)
Length of Visible Light 11h 13m
Length of Day
10h 20m
Waxing Gibbous, 95% of the Moon is Illuminated
Jan 24
Waxing Gibbous
Jan 26
Full
Feb 3
Last Quarter
Feb 9
New
Feb 17
First Quarter

Hourly Weather History & Observations

Time (PST) Temp. Windchill Dew Point Humidity Pressure Visibility Wind Dir Wind Speed Gust Speed Precip Events Conditions
12:15 AM 39.2 °F - 32.0 °F 75% 30.20 in 10.0 mi Calm Calm - N/A   Overcast
12:35 AM 39.2 °F - 32.0 °F 75% 30.19 in 10.0 mi Calm Calm - N/A   Overcast
12:55 AM 41.0 °F 35.8 °F 32.0 °F 70% 30.19 in 10.0 mi WNW 8.1 mph - N/A   Light Drizzle
1:15 AM 41.0 °F 36.4 °F 32.0 °F 70% 30.19 in 10.0 mi West 6.9 mph - N/A   Overcast
1:35 AM 41.0 °F 36.4 °F 32.0 °F 70% 30.19 in 10.0 mi West 6.9 mph - N/A   Overcast
1:55 AM 41.0 °F 38.0 °F 32.0 °F 70% 30.19 in 10.0 mi SSW 4.6 mph - N/A   Overcast
2:15 AM 41.0 °F - 32.0 °F 70% 30.18 in 10.0 mi Calm Calm - N/A   Overcast
2:35 AM 37.4 °F - 32.0 °F 81% 30.19 in 10.0 mi Calm Calm - N/A   Overcast
2:55 AM 37.4 °F - 32.0 °F 81% 30.19 in 10.0 mi Calm Calm - N/A   Overcast
3:15 AM 37.4 °F 34.9 °F 32.0 °F 81% 30.19 in 10.0 mi WSW 3.5 mph - N/A   Drizzle
3:35 AM 37.4 °F - 32.0 °F 81% 30.18 in 10.0 mi Calm Calm - N/A   Drizzle
3:55 AM 35.6 °F - 32.0 °F 87% 30.17 in 10.0 mi Calm Calm - N/A   Drizzle
4:15 AM 35.6 °F - 32.0 °F 87% 30.16 in 10.0 mi Calm Calm - N/A   Drizzle
4:35 AM 35.6 °F - 33.8 °F 93% 30.16 in 10.0 mi Calm Calm - N/A   Drizzle
4:55 AM 35.6 °F - 33.8 °F 93% 30.17 in 7.0 mi Calm Calm - N/A   Drizzle
5:15 AM 35.6 °F - 33.8 °F 93% 30.17 in 10.0 mi Calm Calm - N/A   Drizzle
5:35 AM 35.6 °F - 33.8 °F 93% 30.17 in 10.0 mi Calm Calm - N/A   Drizzle
5:55 AM 35.6 °F - 33.8 °F 93% 30.19 in 10.0 mi Calm Calm - N/A   Drizzle
6:15 AM 35.6 °F - 33.8 °F 93% 30.18 in 5.0 mi Calm Calm - N/A Rain Rain
6:35 AM 35.6 °F - 33.8 °F 93% 30.19 in 7.0 mi Calm Calm - N/A   Drizzle
6:55 AM 35.6 °F - 33.8 °F 93% 30.20 in 5.0 mi Calm Calm - N/A Rain Rain
7:15 AM 37.4 °F - 33.8 °F 87% 30.19 in 3.0 mi Calm Calm - 0.01 in Rain Light Rain
7:35 AM 37.4 °F - 33.8 °F 87% 30.19 in 2.5 mi Calm Calm - 0.03 in Rain Light Rain
7:55 AM 37.4 °F - 33.8 °F 87% 30.20 in 4.0 mi Calm Calm - 0.03 in   Drizzle
8:15 AM 37.4 °F - 35.6 °F 93% 30.20 in 2.5 mi Calm Calm - 0.01 in Rain Light Rain
8:35 AM 37.4 °F - 35.6 °F 93% 30.21 in 1.8 mi Calm Calm - 0.02 in   Drizzle
8:55 AM 41.0 °F 36.4 °F 37.4 °F 87% 30.22 in 2.5 mi West 6.9 mph - 0.02 in   Drizzle
9:15 AM 41.0 °F 39.0 °F 37.4 °F 87% 30.23 in 3.0 mi WSW 3.5 mph - 0.01 in Rain Light Rain
9:35 AM 42.8 °F 38.0 °F 39.2 °F 87% 30.24 in 4.0 mi West 8.1 mph - 0.01 in Rain Light Rain
9:55 AM 41.0 °F 36.4 °F 37.4 °F 87% 30.25 in 3.0 mi West 6.9 mph - 0.01 in Rain Light Rain
10:15 AM 41.0 °F 38.0 °F 37.4 °F 87% 30.25 in 5.0 mi WSW 4.6 mph - N/A Rain Light Rain
10:35 AM 41.0 °F 34.7 °F 37.4 °F 87% 30.26 in 4.0 mi West 10.4 mph - N/A Rain Light Rain
10:55 AM 41.0 °F 35.2 °F 37.4 °F 87% 30.27 in 5.0 mi West 9.2 mph - N/A Rain Light Rain
11:15 AM 41.0 °F 35.8 °F 37.4 °F 87% 30.27 in 7.0 mi West 8.1 mph - 0.01 in Rain Light Rain
11:35 AM 42.8 °F 38.6 °F 37.4 °F 81% 30.24 in 10.0 mi West 6.9 mph - 0.01 in   Light Drizzle
11:55 AM 44.6 °F 40.7 °F 37.4 °F 76% 30.24 in 10.0 mi SW 6.9 mph - 0.01 in   Scattered Clouds
12:15 PM 42.8 °F 41.1 °F 37.4 °F 81% 30.23 in 10.0 mi WSW 3.5 mph - N/A   Scattered Clouds
12:35 PM 44.6 °F - 37.4 °F 76% 30.23 in 10.0 mi Calm Calm - N/A   Scattered Clouds
12:55 PM 44.6 °F 42.2 °F 37.4 °F 76% 30.23 in 10.0 mi West 4.6 mph - N/A   Mostly Cloudy
1:15 PM 46.4 °F 42.9 °F 37.4 °F 71% 30.23 in 10.0 mi West 6.9 mph - N/A   Overcast
1:35 PM 44.6 °F 42.2 °F 37.4 °F 76% 30.23 in 10.0 mi SW 4.6 mph - N/A   Overcast
1:55 PM 46.4 °F - 37.4 °F 71% 30.21 in 10.0 mi Calm Calm - N/A   Overcast
2:15 PM 46.4 °F 45.2 °F 37.4 °F 71% 30.22 in 10.0 mi SW 3.5 mph - N/A   Scattered Clouds
2:35 PM 46.4 °F 44.3 °F 35.6 °F 66% 30.22 in 10.0 mi West 4.6 mph - N/A   Mostly Cloudy
2:55 PM 46.4 °F 43.5 °F 35.6 °F 66% 30.22 in 10.0 mi West 5.8 mph - N/A   Overcast
3:15 PM 46.4 °F 44.3 °F 35.6 °F 66% 30.22 in 10.0 mi West 4.6 mph - N/A   Overcast
3:35 PM 46.4 °F 44.3 °F 35.6 °F 66% 30.22 in 10.0 mi WSW 4.6 mph - N/A   Mostly Cloudy
3:55 PM 46.4 °F 43.5 °F 35.6 °F 66% 30.22 in 10.0 mi West 5.8 mph - N/A   Mostly Cloudy
4:15 PM 46.4 °F 44.3 °F 35.6 °F 66% 30.23 in 10.0 mi West 4.6 mph - N/A   Mostly Cloudy
4:35 PM 44.6 °F 42.2 °F 33.8 °F 66% 30.23 in 10.0 mi West 4.6 mph - N/A   Scattered Clouds
4:55 PM 42.8 °F - 35.6 °F 76% 30.23 in 4.0 mi Calm Calm - N/A   Haze
5:15 PM 41.0 °F - 35.6 °F 81% 30.24 in 10.0 mi Calm Calm - N/A   Clear
5:35 PM 41.0 °F - 33.8 °F 76% 30.25 in 10.0 mi Calm Calm - N/A   Scattered Clouds
5:55 PM 37.4 °F - 33.8 °F 87% 30.25 in 10.0 mi Calm Calm - N/A   Scattered Clouds
6:15 PM 37.4 °F - 33.8 °F 87% 30.25 in 10.0 mi Calm Calm - N/A   Clear
6:35 PM 35.6 °F - 32.0 °F 87% 30.25 in 10.0 mi Calm Calm - N/A   Clear
6:55 PM 35.6 °F - 32.0 °F 87% 30.25 in 10.0 mi Calm Calm - N/A   Clear
7:15 PM 33.8 °F - 32.0 °F 93% 30.26 in 7.0 mi Calm Calm - N/A   Clear
7:35 PM 33.8 °F - 32.0 °F 93% 30.27 in 10.0 mi Calm Calm - N/A   Clear
7:55 PM 33.8 °F - 32.0 °F 93% 30.27 in 10.0 mi Calm Calm - N/A   Clear
8:15 PM 33.8 °F - 32.0 °F 93% 30.27 in 10.0 mi Calm Calm - N/A   Clear
8:35 PM 33.8 °F - 32.0 °F 93% 30.27 in 10.0 mi Calm Calm - N/A   Scattered Clouds
8:55 PM 32.0 °F - 32.0 °F 100% 30.27 in 7.0 mi Calm Calm - N/A   Scattered Clouds
9:15 PM 32.0 °F - 32.0 °F 100% 30.28 in 7.0 mi Calm Calm - N/A   Mostly Cloudy
9:35 PM 32.0 °F - 32.0 °F 100% 30.28 in 10.0 mi Calm Calm - N/A   Scattered Clouds
9:55 PM 32.0 °F - 32.0 °F 100% 30.27 in 4.0 mi Calm Calm - N/A   Clear
10:15 PM 32.0 °F 28.7 °F 32.0 °F 100% 30.27 in 7.0 mi West 3.5 mph - N/A   Clear
10:35 PM 33.8 °F 28.6 °F 32.0 °F 93% 30.28 in 7.0 mi West 5.8 mph - N/A   Scattered Clouds
10:55 PM 32.0 °F - 32.0 °F 100% 30.27 in 7.0 mi Calm Calm - N/A   Overcast
11:15 PM 32.0 °F - 32.0 °F 100% 30.27 in 7.0 mi Calm Calm - N/A   Mostly Cloudy
11:35 PM 33.8 °F 30.8 °F 32.0 °F 93% 30.28 in 5.0 mi WSW 3.5 mph - N/A   Overcast
11:55 PM 33.8 °F - 32.0 °F 93% 30.27 in 7.0 mi Calm Calm - N/A   Overcast